Preview of NWS' New Version of Forecast
This preview is not operational and should not be used for support decisions.

Regional Weather Roundup (RWR)

Issued by National Weather Service (NWS)

                            
000
ASUS46 KPQR 190310
RWROR 

OREGON REGIONAL WEATHER ROUNDUP
NATIONAL WEATHER SERVICE PORTLAND OR
800 PM PDT MON MAR 18 2019

NOTE: "FAIR" INDICATES FEW OR NO CLOUDS BELOW 12,000 FEET WITH
NO SIGNIFICANT WEATHER AND/OR OBSTRUCTIONS TO VISIBILITY.

ORZ001>013-190400-
NORTHWEST OREGON

  
CITY           SKY/WX    TMP DP  RH WIND       PRES   REMARKS
ASTORIA        CLEAR     64  29  26 E10       29.99R                  
TILLAMOOK      CLEAR     63  32  31 E12G18    29.99S                  
NEWPORT        CLEAR     66  32  28 E14       29.94R                  
PORTLAND       CLEAR     59  30  33 E18G25    30.07R                  
VANCOUVER WA   CLEAR     60  29  30 E15G22    30.07R                  
SCAPPOOSE      CLEAR     59  32  36 E12       30.07S                  
HILLSBORO      CLEAR     59  30  33 E16G32    30.04F                  
AURORA         CLEAR     56  33  42 N12       30.03R                  
MCMINNVILLE    CLEAR     59  32  36 NE18      29.99S                  
SALEM          CLEAR     63  30  28 NE13      29.97S                  
CORVALLIS      CLEAR     62  37  39 N8        29.95R                  
EUGENE         PTCLDY    57  43  58 N9        29.91R                  
$$

ORZ021-028-190400-
SOUTHWEST OREGON

  
CITY           SKY/WX    TMP DP  RH WIND       PRES   REMARKS
NORTH BEND     CLEAR     52  50  93 W5        29.95S FOG              
BROOKINGS      CLEAR     57  43  59 CALM      29.92F                  
ROSEBURG       CLEAR     68  39  34 CALM      29.89R                  
SEXTON SUMMIT  CLEAR     55  23  28 VRB6      29.98S                  
GRANTS PASS    FAIR      66  34  30 CALM      29.91R                  
MEDFORD        CLEAR     63  32  31 SE6       29.90S                  
$$

ORZ014>016-041-190400-
COLUMBIA GORGE

  
CITY           SKY/WX    TMP DP  RH WIND       PRES   REMARKS
TROUTDALE      CLEAR     55  33  43 E16G26    30.07S                  
HOOD RIVER     CLEAR     46  34  61 MISG      30.22F                  
THE DALLES     CLEAR     48  35  60 NE3       30.23F                  
$$

ORZ029>031-041-044-049-050-061>064-502-503-505>511-190400-
EASTERN OREGON

  
CITY           SKY/WX    TMP DP  RH WIND       PRES   REMARKS
MADRAS         CLEAR     36  32  87 W6        30.20S                  
REDMOND        CLEAR     41  33  73 NW6       30.18R                  
BEND           CLEAR     36  32  87 CALM      30.18R                  
PRINEVILLE     CLEAR     37  34  87 SW6       30.18R                  
KLAMATH FALLS  CLEAR     51  29  42 E12       30.03R                  
LAKEVIEW       CLEAR     41  31  67 W5        30.09S                  
HERMISTON      CLEAR     44  36  73 CALM      30.24S                  
PENDLETON      CLEAR     38  33  82 NE7       30.22S                  
JOHN DAY       CLEAR     49  25  39 E3        30.18R                  
MEACHAM        CLEAR     33  27  78 CALM      30.19S                  
LA GRANDE      CLEAR     44  29  55 CALM      30.21S                  
BAKER CITY     CLEAR     38  28  67 S6        30.21R                  
BURNS          CLEAR     42  29  59 MISG      30.18R                  
ROME             N/A     46  27  47 E9        30.14R                  
ONTARIO        CLEAR     48  29  47 NW6       30.20R                  
$$